Powrót do katalogu

USA 202

AktywnyMilitariaGEO
NORAD 33490·PAYLOAD·🇺🇸 United States

Wystrzelony Jan 18, 2009 z Cape Canaveral Space Force Station

Loading…

TLE

ŚwieżeSource: Mike McCants

Epoka: Sep 14, 2026, 23:38 UTC

1 33490U 09001A   26257.98473222  .00000000  00000-0  00000-0 0    01
2 33490   8.9745  32.4365 0006686 257.3422 102.5905  1.00270000  2642

Śledź USA 202 w czasie rzeczywistym z AllMySat

Download on the App Store